Temp
90 89 91 96 97 97 96 95 90 89 92 92 96 98 99 102 90 97 97 76 76 74 71 70 70 72 73 73 72 72 72 72 72 72 72 72 73 73
93 89 88 95 94 95 95 95 94 91 88 97 97 96 95 98 94 96 96 82 80 76 72 71 70 71 72 71 71 70 71 71 71 71 70 70 70 71
89 89 88 89 93 95 95 95 93 93 89 94 97 97 91 92 93 95 97 98 101 77 73 71 70 70 70 70 69 69 69 68 68 69 69 69 69 69
88 88 88 92 87 88 93 89 92 92 90 85 91 94 92 92 92 91 96 101 98 81 74 72 70 68 67 66 66 65 65 65 65 65 65 66 66 66
89 88 88 88 87 91 90 92 93 92 92 90 90 95 95 95 93 94 94 94 101 84 77 72 68 66 65 63 63 61 59 59 61 61 61 62 63 64
90 90 90 89 88 87 89 88 89 89 90 90 91 93 94 95 94 93 95 98 97 100 91 79 74 66 65 63 63 61 58 58 58 58 58 58 59 61
90 90 90 88 80 82 91 89 88 89 91 91 91 92 93 94 90 94 93 95 95 98 96 97 94 85 79 66 70 65 62 60 59 59 58 57 58 58
88 90 90 81 80 72 71 72 78 85 84 88 90 89 87 89 93 92 92 90 88 99 94 94 99 94 96 93 67 64 63 61 61 60 59 57 57 57
89 89 91 96 84 90 73 69 69 68 70 83 83 85 85 87 87 85 87 87 88 94 92 91 97 93 93 83 64 63 62 61 61 60 59 58 56 56
91 90 89 91 91 89 90 90 89 89 84 86 85 86 88 89 88 89 87 86 89 93 93 88 96 95 95 92 63 63 62 61 61 61 59 57 54 54
90 91 91 90 79 69 88 88 88 90 81 71 71 70 67 67 73 89 89 89 90 93 98 95 94 95 94 90 84 62 61 60 59 61 60 58 54 52
88 88 73 83 71 65 85 86 85 88 91 92 88 79 72 80 66 80 88 87 90 90 97 93 93 95 90 91 91 78 75 59 57 59 60 57 54 79
91 93 94 68 65 61 64 87 85 88 86 90 91 93 94 94 93 88 87 89 90 92 96 94 92 93 93 90 85 88 86 80 78 70 54 57 54 57
90 95 92 65 60 61 64 69 63 67 91 92 93 93 94 96 97 97 92 90 93 89 92 89 90 92 91 90 85 84 81 88 87 85 85 65 54 56
89 84 68 60 56 61 59 64 61 82 86 89 90 91 94 97 95 94 94 92 89 89 91 87 89 89 90 88 86 84 79 84 87 85 85 83 83 82
72 80 79 72 64 74 78 70 80 85 86 88 90 93 95 96 95 96 93 94 92 92 91 89 88 86 86 89 87 84 84 81 85 85 84 84 83 82
79 86 86 86 86 87 87 88 88 86 84 87 89 91 92 93 94 95 94 93 90 91 93 95 87 87 84 80 76 80 84 81 87 85 79 81 84 82
80 83 86 87 88 89 88 89 89 85 90 89 89 90 90 91 92 93 93 91 90 91 92 94 88 81 80 79 74 80 79 80 81 83 81 80 82 85
77 82 85 88 90 90 90 90 89 92 89 90 90 90 90 90 89 90 91 91 90 90 91 93 91 82 76 79 88 64 83 81 86 83 82 81 80 83
76 77 81 88 89 88 89 90 90 91 91 91 90 89 89 89 89 89 90 88 89 90 89 89 83 81 77 80 83 86 56 83 83 81 80 82 76 57
78 80 78 81 83 84 84 86 87 89 88 90 90 90 89 89 87 89 90 72 79 88 83 81 84 71 82 80 77 80 79 54 64 80 79 78 77 79
83 84 84 84 82 83 84 84 82 81 81 82 83 85 80 82 86 88 88 88 88 87 84 82 82 76 76 77 80 81 75 76 61 56 57 61 75 72
82 84 85 83 84 83 81 81 82 83 79 79 79 79 78 74 75 76 76 77 78 81 82 74 70 72 74 75 72 76 72 74 74 67 68 56 55 55
MSLP
1021.92 1022.13 1021.77 1021.37 1021.41 1021.30 1021.22 1021.05 1020.57 1019.61 1019.49 1020.19 1019.70 1020.07 1020.04 1019.68 1020.18 1020.02 1019.68 1020.03 1019.97 1019.89 1019.91 1019.61 1019.50 1019.09 1018.77 1018.59 1018.32 1018.26 1018.25 1018.18 1018.07 1017.98 1017.93 1017.92 1017.74 1017.73
1021.58 1021.81 1022.02 1021.33 1021.46 1021.29 1021.21 1021.16 1021.07 1020.67 1019.95 1019.85 1019.79 1020.20 1020.46 1020.11 1019.68 1019.82 1019.47 1019.43 1019.07 1019.24 1019.47 1019.41 1019.16 1018.98 1018.75 1018.59 1018.49 1018.40 1018.31 1018.27 1018.07 1018.04 1017.93 1017.82 1017.72 1017.82
1021.53 1021.64 1021.78 1021.72 1021.26 1020.98 1021.07 1021.02 1020.93 1020.81 1020.38 1019.80 1019.91 1019.83 1020.49 1020.25 1019.94 1019.71 1019.04 1018.73 1018.01 1018.73 1018.97 1019.04 1019.01 1018.88 1018.79 1018.72 1018.73 1018.55 1018.53 1018.53 1018.53 1018.47 1018.54 1018.38 1018.16 1018.23
1021.25 1021.38 1021.43 1021.34 1021.60 1021.44 1021.12 1021.15 1020.81 1020.83 1020.84 1020.36 1020.12 1019.97 1019.97 1019.95 1019.69 1019.52 1018.81 1018.35 1018.28 1018.23 1018.27 1018.56 1018.69 1018.86 1018.90 1018.93 1018.91 1018.87 1018.86 1018.85 1018.80 1018.78 1018.65 1018.48 1018.25 1018.11
1020.79 1020.93 1021.00 1021.13 1021.19 1020.87 1021.08 1020.65 1020.55 1020.73 1020.60 1020.32 1019.89 1019.65 1019.46 1019.50 1019.31 1018.76 1018.62 1018.32 1017.62 1017.56 1017.60 1018.19 1018.44 1018.74 1019.00 1019.06 1019.15 1019.15 1019.19 1019.06 1019.07 1019.12 1019.02 1018.81 1018.67 1018.46
1020.33 1020.43 1020.50 1020.62 1020.85 1021.06 1021.09 1021.07 1021.01 1020.84 1020.34 1020.25 1019.73 1019.20 1018.93 1018.88 1018.96 1018.39 1017.84 1017.69 1017.56 1017.48 1017.01 1017.69 1018.02 1018.38 1018.91 1019.24 1019.20 1019.27 1019.24 1019.31 1019.27 1019.27 1019.08 1018.93 1018.72 1018.49
1019.69 1019.93 1020.03 1019.83 1020.25 1020.66 1020.74 1020.77 1020.79 1020.65 1020.17 1019.64 1019.22 1018.91 1018.51 1018.28 1018.36 1018.33 1017.97 1017.57 1017.37 1016.97 1016.98 1016.94 1016.80 1017.65 1018.31 1018.88 1019.11 1019.22 1019.13 1019.19 1019.33 1019.24 1019.09 1018.90 1018.75 1018.63
1019.13 1019.28 1019.55 1020.02 1020.55 1020.45 1020.61 1020.65 1021.07 1020.94 1020.73 1020.09 1019.21 1018.66 1018.67 1018.84 1018.40 1018.27 1017.94 1017.67 1017.19 1016.69 1016.90 1016.56 1016.16 1015.98 1016.31 1016.83 1018.21 1018.67 1019.05 1019.25 1019.34 1019.19 1019.15 1018.97 1018.83 1018.68
1018.55 1018.65 1018.79 1018.77 1019.49 1019.97 1020.37 1020.51 1020.75 1020.77 1020.93 1020.51 1019.65 1019.12 1018.76 1018.75 1018.75 1018.63 1018.21 1017.91 1017.53 1017.05 1017.06 1016.23 1015.83 1015.40 1016.05 1017.37 1018.14 1018.52 1018.83 1019.07 1019.17 1019.25 1019.21 1019.01 1018.82 1018.54
1017.65 1017.89 1018.13 1018.08 1018.29 1018.81 1019.24 1019.19 1019.27 1019.30 1019.50 1019.55 1019.05 1018.67 1018.41 1018.27 1018.22 1018.19 1018.04 1017.93 1017.49 1016.81 1016.29 1015.81 1015.49 1014.98 1015.41 1016.11 1017.92 1018.65 1018.71 1018.85 1018.91 1019.05 1019.01 1018.94 1018.75 1018.41
1016.90 1017.05 1017.25 1017.46 1017.73 1018.09 1018.33 1018.14 1018.00 1017.61 1017.35 1017.88 1017.99 1018.02 1018.23 1018.23 1018.24 1017.88 1017.18 1016.79 1015.90 1015.31 1015.01 1014.93 1015.07 1014.64 1014.89 1015.47 1016.69 1018.19 1018.49 1018.51 1018.49 1018.64 1018.82 1018.74 1018.48 1017.76
1015.73 1016.05 1016.33 1016.66 1016.95 1017.41 1017.75 1017.54 1017.19 1016.91 1016.83 1016.65 1017.22 1017.33 1017.53 1017.33 1017.89 1017.80 1017.07 1016.24 1015.42 1014.74 1014.43 1014.64 1014.59 1014.16 1014.04 1014.43 1015.11 1017.15 1017.77 1018.19 1018.34 1018.31 1018.37 1018.44 1018.40 1016.82
1014.23 1014.12 1014.49 1015.06 1015.89 1016.43 1016.71 1016.71 1016.35 1016.45 1016.23 1016.29 1016.12 1015.84 1015.43 1015.32 1015.42 1015.88 1015.90 1015.76 1014.97 1014.23 1013.87 1014.39 1014.35 1014.13 1013.80 1014.11 1014.65 1014.90 1015.53 1016.24 1016.95 1017.37 1017.89 1017.99 1018.04 1017.83
1013.08 1012.86 1013.27 1013.82 1014.35 1015.05 1015.75 1015.73 1015.89 1016.01 1015.69 1015.03 1014.51 1014.20 1013.97 1013.77 1013.62 1013.65 1013.95 1014.51 1014.41 1014.35 1014.13 1014.47 1014.15 1013.81 1013.56 1013.29 1013.54 1014.19 1014.65 1014.85 1015.00 1015.24 1015.51 1016.64 1017.30 1017.41
1013.05 1012.63 1012.82 1013.27 1013.77 1014.20 1014.46 1014.68 1015.05 1015.41 1014.82 1013.97 1013.40 1013.12 1013.03 1012.89 1012.89 1012.92 1013.05 1013.41 1013.77 1013.88 1013.83 1014.06 1013.87 1013.40 1013.37 1013.08 1013.25 1013.83 1014.39 1014.03 1014.09 1014.74 1014.86 1015.16 1015.30 1015.50
1012.82 1012.93 1012.85 1012.92 1013.00 1013.05 1013.33 1013.99 1014.19 1013.69 1013.28 1012.69 1012.43 1012.24 1012.16 1012.02 1011.85 1012.10 1012.29 1012.26 1012.17 1012.05 1012.06 1012.66 1012.95 1013.29 1012.94 1012.63 1012.94 1013.14 1013.39 1013.29 1013.43 1014.09 1014.46 1014.61 1014.94 1015.27
1011.49 1011.53 1011.41 1011.44 1011.47 1011.43 1011.61 1011.83 1011.87 1012.17 1012.17 1011.84 1011.49 1011.24 1011.18 1011.09 1010.88 1011.10 1011.16 1011.24 1011.04 1010.82 1010.63 1010.71 1011.68 1012.13 1012.56 1012.94 1013.07 1012.95 1012.76 1012.77 1012.77 1013.43 1014.50 1013.97 1013.97 1014.41
1010.87 1010.47 1009.91 1009.72 1009.57 1009.53 1009.74 1009.83 1010.01 1010.07 1010.05 1010.39 1010.41 1010.38 1010.25 1010.11 1009.98 1010.04 1010.21 1010.19 1010.01 1009.85 1009.73 1009.69 1010.33 1011.72 1012.15 1012.33 1012.59 1012.21 1012.34 1012.20 1012.24 1012.89 1013.53 1013.45 1013.16 1013.21
1010.09 1009.74 1008.94 1008.47 1008.22 1008.34 1008.45 1008.79 1008.56 1008.43 1008.84 1009.04 1009.00 1009.08 1009.20 1009.23 1009.23 1009.20 1009.10 1009.21 1009.09 1009.01 1008.93 1008.86 1009.26 1010.28 1010.85 1010.55 1010.61 1011.71 1011.42 1011.61 1011.59 1012.41 1013.15 1013.20 1013.09 1013.07
1009.41 1009.03 1008.65 1007.74 1007.49 1007.47 1007.68 1007.72 1007.85 1007.86 1007.78 1007.92 1008.10 1008.29 1008.39 1008.42 1008.33 1008.21 1008.23 1008.31 1008.30 1008.21 1008.31 1008.51 1008.87 1009.54 1009.93 1009.83 1009.65 1009.91 1010.97 1011.01 1011.07 1011.67 1012.22 1012.75 1013.62 1014.09
1007.91 1007.66 1007.72 1007.59 1007.36 1007.35 1007.41 1007.46 1007.27 1007.25 1007.42 1007.12 1007.17 1007.43 1007.54 1007.62 1007.55 1007.48 1007.19 1007.29 1007.38 1007.38 1007.52 1007.90 1008.37 1008.80 1009.32 1009.91 1009.93 1009.69 1010.75 1011.23 1011.46 1011.53 1011.95 1012.35 1012.69 1012.68
1006.11 1005.91 1005.90 1006.21 1006.61 1006.86 1006.83 1006.87 1006.82 1006.96 1007.27 1007.34 1007.42 1007.26 1007.43 1007.33 1006.77 1006.73 1006.70 1006.50 1006.53 1006.74 1006.93 1007.41 1008.03 1008.79 1009.26 1009.08 1008.82 1008.59 1009.90 1010.71 1011.23 1011.94 1012.34 1012.63 1012.52 1012.62
1004.98 1004.79 1004.75 1004.99 1005.28 1005.70 1006.10 1006.26 1006.28 1006.25 1006.48 1006.72 1006.83 1006.99 1007.00 1007.04 1007.11 1007.06 1007.14 1007.07 1006.87 1006.80 1006.95 1007.66 1008.27 1008.43 1008.55 1008.58 1009.01 1009.13 1009.73 1010.33 1010.37 1011.17 1011.61 1011.95 1012.35 1012.74
Wind_Speed
5 4 7 2 2 0 1 3 6 2 2 5 2 4 4 4 5 9 8 8 6 6 4 7 6 7 8 8 7 5 5 4 4 4 5 8 9 10
6 6 6 4 4 3 3 2 3 5 5 1 3 4 6 7 2 9 9 9 10 5 4 6 6 6 6 6 6 8 8 7 6 7 7 8 9 11
7 7 8 5 7 5 4 4 4 4 6 5 4 1 5 7 8 8 9 9 4 7 4 1 5 5 6 5 7 9 8 8 9 10 11 11 11 12
9 9 9 8 8 7 6 6 6 5 7 7 7 7 5 7 7 9 7 8 8 2 0 6 1 4 4 5 7 8 8 9 9 10 9 7 8 10
9 9 9 9 9 8 7 6 7 7 7 8 7 7 6 7 7 8 7 7 8 3 5 9 9 8 6 6 7 8 7 6 8 9 8 8 10 12
11 10 10 10 10 9 9 8 7 7 7 8 8 8 7 5 6 8 7 7 6 9 5 8 7 12 11 7 7 7 7 6 6 7 8 8 9 10
12 11 12 11 10 10 8 9 8 8 9 9 8 8 8 6 6 8 9 8 8 5 5 9 5 8 8 8 6 6 8 5 5 7 7 8 8 8
12 12 12 10 11 10 11 11 10 9 11 10 10 9 8 8 8 8 8 9 9 6 7 9 8 3 2 5 9 12 8 5 3 2 5 6 6 6
13 13 13 12 14 14 16 14 13 12 13 12 12 11 11 9 9 9 9 9 9 9 10 10 9 4 4 8 9 9 8 6 4 0 5 7 6 5
15 15 14 14 13 15 14 14 15 14 14 12 15 15 13 11 11 10 10 10 10 11 9 10 8 9 3 4 10 8 8 7 5 2 5 7 8 9
16 17 16 16 14 13 16 15 14 13 12 15 15 14 10 10 10 10 11 11 11 9 7 9 7 10 2 6 9 12 9 8 7 5 5 8 9 14
16 17 16 20 13 14 16 16 15 14 14 14 13 14 14 15 15 13 12 12 12 11 7 7 8 9 7 2 4 9 8 11 9 7 7 7 8 8
16 15 16 21 22 16 17 16 15 13 14 13 13 13 13 13 12 13 13 13 12 12 8 7 9 10 7 9 4 8 8 5 8 8 11 9 7 4
16 15 15 13 20 21 17 19 13 10 14 14 14 13 13 12 12 11 12 13 12 12 11 7 9 10 10 10 9 2 3 7 6 6 5 7 10 8
15 14 11 4 8 13 19 18 16 14 16 15 15 15 14 13 11 11 9 10 12 14 13 14 12 12 11 11 10 6 5 7 7 6 5 5 4 3
18 17 15 12 11 12 11 14 13 15 14 15 15 14 13 13 13 12 12 12 13 12 16 16 13 12 12 12 9 10 8 7 6 6 6 5 4 4
13 13 14 15 15 15 14 15 13 13 15 15 14 14 13 13 13 12 12 12 13 12 12 11 14 12 9 9 7 9 10 10 7 6 5 7 5 5
9 12 14 15 16 15 15 14 15 15 14 14 14 14 14 14 13 13 13 14 13 13 12 12 7 9 8 10 13 10 8 8 4 7 7 8 6 4
9 13 14 15 15 14 13 14 15 14 13 14 14 14 13 13 13 13 13 13 13 13 13 12 11 9 10 12 4 14 11 8 8 7 7 8 6 5
10 11 14 14 13 11 12 13 13 13 14 14 14 14 13 13 13 14 14 14 14 13 12 10 7 10 12 13 10 4 15 9 8 8 8 7 2 8
12 14 12 12 10 10 9 12 13 13 13 13 13 13 13 13 14 14 14 14 13 14 12 11 12 11 10 7 10 9 7 8 3 7 5 6 6 7
13 14 12 13 12 12 12 12 10 10 11 11 12 12 10 11 13 13 13 14 13 13 12 9 6 7 9 12 13 11 7 7 7 3 1 3 3 5
13 13 12 11 10 11 12 12 12 13 10 10 10 10 10 10 10 10 9 10 9 11 10 5 5 5 8 10 10 8 10 10 8 7 7 7 7 8
Wind_Direction
186 214 271 175 226 304 328 355 333 313 133 141 285 99 341 320 42 330 328 45 280 292 359 313 326 328 334 335 334 347 19 6 4 358 338 336 329 333
228 184 247 234 223 236 269 275 281 311 302 127 291 358 346 328 48 327 323 249 206 212 62 335 315 319 337 5 27 54 61 61 53 49 37 21 4 17
238 221 225 240 256 232 234 254 264 259 280 296 322 270 317 311 324 326 304 297 337 126 74 326 311 339 6 45 67 79 77 65 57 48 39 19 7 24
221 225 230 222 223 244 250 255 280 295 282 286 295 289 288 315 305 304 310 315 342 133 29 188 76 46 63 82 92 92 84 68 49 45 45 29 18 29
226 222 228 226 227 256 233 258 228 225 234 257 284 279 294 289 309 284 293 305 278 355 246 178 124 103 107 101 99 96 80 71 52 39 34 22 18 17
230 228 229 227 229 228 237 240 254 270 255 255 267 276 271 291 274 286 306 313 327 319 327 64 144 132 121 123 125 121 106 79 52 42 25 20 18 14
228 227 228 232 224 236 247 220 257 240 253 260 264 268 270 286 319 308 301 311 302 299 311 314 177 160 149 184 149 148 125 119 69 37 22 10 6 4
234 228 236 205 225 222 232 254 272 258 258 279 282 280 295 276 272 293 310 306 307 311 321 309 301 343 308 221 115 137 151 149 116 31 0 5 349 346
236 238 231 228 209 230 219 227 243 243 246 263 266 271 285 282 283 282 279 295 292 313 301 300 296 268 221 125 145 160 170 169 176 69 316 329 329 301
239 237 237 243 227 219 235 230 227 228 222 235 242 257 260 260 264 267 275 281 269 251 244 272 289 303 168 138 164 182 196 193 189 222 274 298 313 290
242 237 238 236 235 208 232 238 242 245 228 216 236 251 257 267 267 284 271 271 272 276 275 274 278 284 257 248 164 194 208 213 200 222 268 293 301 295
230 234 227 238 228 201 223 236 243 244 249 262 226 246 247 246 237 241 253 256 264 274 282 272 271 287 298 150 222 158 213 212 209 220 244 271 314 319
237 237 234 207 218 217 214 235 240 245 245 246 254 255 253 239 231 211 229 247 261 267 271 243 266 277 263 269 213 218 196 180 206 201 226 232 245 304
245 242 241 209 205 212 205 231 240 240 249 254 255 254 254 250 249 237 217 220 247 263 283 278 268 269 280 288 272 192 171 231 220 235 228 145 216 218
252 259 274 269 202 207 220 221 218 237 247 248 246 248 249 253 259 254 246 243 242 250 248 249 251 251 255 264 277 275 255 206 209 229 229 231 255 285
237 257 263 268 272 262 223 217 232 235 235 238 242 247 249 248 243 237 249 248 237 242 215 225 233 243 252 255 261 263 253 241 190 213 225 234 233 236
227 231 239 234 237 238 233 238 222 221 230 239 243 243 244 245 244 241 249 247 248 253 253 229 203 229 239 251 233 242 256 251 232 197 211 243 233 220
206 236 240 235 235 232 231 228 226 230 228 226 234 238 243 242 242 241 243 245 248 246 248 245 199 211 216 230 223 244 244 258 210 177 231 249 254 224
224 246 244 243 238 237 232 236 240 231 226 234 236 234 238 240 238 245 244 242 243 244 247 251 238 214 230 244 208 228 242 218 225 217 225 233 254 269
235 233 248 253 245 241 242 240 239 237 232 234 232 234 239 242 242 241 241 242 247 247 247 247 242 229 219 240 273 269 202 241 203 214 225 216 107 116
218 228 234 248 253 249 238 244 246 246 247 248 240 237 234 235 241 245 246 241 248 251 244 239 233 228 229 247 248 203 166 191 252 214 222 246 242 230
230 230 227 232 236 250 243 244 245 235 230 234 247 245 240 254 255 252 252 253 245 242 246 254 229 193 217 223 233 225 176 179 158 182 239 218 250 226
233 231 233 230 225 229 230 235 237 241 237 236 239 240 236 232 231 235 241 245 256 248 253 224 183 210 216 216 223 227 174 191 179 179 205 193 196 173